TimeMST,TemperatureF,Dew PointF,Humidity,Sea Level PressureIn,VisibilityMPH,Wind Direction,Wind SpeedMPH,Gust SpeedMPH,PrecipitationIn,Events,Conditions,WindDirDegrees,DateUTC
12:56 AM,24.1,19.9,84,30.07,10.0,South,9.2,-,N/A,,Partly Cloudy,190,2013-11-06 07:56:00
1:56 AM,23.0,19.0,85,30.07,10.0,South,9.2,-,N/A,,Clear,190,2013-11-06 08:56:00
2:56 AM,23.0,19.0,85,30.06,10.0,South,6.9,-,N/A,,Clear,190,2013-11-06 09:56:00
3:56 AM,23.0,18.0,81,30.06,10.0,SW,4.6,-,N/A,,Clear,230,2013-11-06 10:56:00
4:56 AM,19.9,15.1,81,30.09,10.0,WSW,6.9,-,N/A,,Clear,250,2013-11-06 11:56:00
5:56 AM,19.0,14.0,81,30.09,10.0,West,8.1,-,N/A,,Clear,270,2013-11-06 12:56:00
6:56 AM,19.0,14.0,81,30.11,10.0,West,8.1,-,N/A,,Clear,270,2013-11-06 13:56:00
7:56 AM,26.1,19.9,78,30.11,10.0,West,5.8,-,N/A,,Clear,270,2013-11-06 14:56:00
8:56 AM,33.1,24.1,70,30.10,10.0,WNW,8.1,-,N/A,,Partly Cloudy,290,2013-11-06 15:56:00
9:56 AM,37.0,24.1,59,30.10,10.0,West,6.9,-,N/A,,Overcast,280,2013-11-06 16:56:00
10:56 AM,42.1,19.0,40,30.09,10.0,Variable,5.8,-,N/A,,Scattered Clouds,0,2013-11-06 17:56:00
11:56 AM,43.0,18.0,37,30.09,10.0,WSW,9.2,-,N/A,,Clear,250,2013-11-06 18:56:00
12:56 PM,44.1,19.9,38,30.09,10.0,WNW,13.8,-,N/A,,Clear,290,2013-11-06 19:56:00
1:56 PM,44.1,19.9,38,30.10,10.0,WNW,19.6,-,N/A,,Clear,300,2013-11-06 20:56:00
2:56 PM,41.0,18.0,40,30.13,10.0,NW,17.3,-,N/A,,Clear,310,2013-11-06 21:56:00
3:56 PM,36.0,16.0,44,30.16,10.0,WNW,12.7,-,N/A,,Clear,300,2013-11-06 22:56:00
4:56 PM,32.0,14.0,48,30.20,10.0,NW,10.4,-,N/A,,Clear,310,2013-11-06 23:56:00
5:56 PM,27.0,14.0,58,30.25,10.0,NW,10.4,-,N/A,,Clear,320,2013-11-07 00:56:00
6:56 PM,26.1,16.0,66,30.27,10.0,NW,10.4,-,N/A,,Clear,310,2013-11-07 01:56:00
7:56 PM,21.0,14.0,74,30.28,10.0,WNW,8.1,-,N/A,,Clear,290,2013-11-07 02:56:00
8:56 PM,18.0,12.9,81,30.29,10.0,West,6.9,-,N/A,,Clear,280,2013-11-07 03:56:00
9:56 PM,17.1,12.0,81,30.31,10.0,West,9.2,-,N/A,,Clear,260,2013-11-07 04:56:00
10:56 PM,19.9,14.0,78,30.29,10.0,WSW,6.9,-,N/A,,Clear,250,2013-11-07 05:56:00
11:56 PM,21.9,15.1,75,30.29,10.0,West,9.2,-,N/A,,Clear,270,2013-11-07 06:56:00